Location: Bednik
(45.3500°N, 16.3833°E)
Time: 23:04:44
(UTC+00:00)

Cosmos 2346 Rocket - Pass Details

Date: 08 August 2020
Orbit: 936 x 980 km, 82.9° (Epoch: 23 September)

Event Time Altitude Azimuth Distance (km) Brightness Sun altitude
Rises 21:17:38 0° 354° (N) 3,614 8.6 -24.6°
Reaches altitude 10° 21:20:10 10° 358° (N) 2,662 7.6 -24.8°
Maximum altitude 21:26:11 61° 79° (ENE) 1,057 4.5 -25.2°
Enters shadow 21:27:03 55° 115° (ESE) 1,114 4.5 -25.3°
